KC5JIM Weather Reports


Display with metric or nautical units.
time (UTC)temp
F
wind
direction
speed
MPH
gust
MPH
rain 1hr
in
rain 24hr
in
rain mn
in
humidity
%
barometer
mb
20260831030142 92 162 14.0 25.0 0.00 0.00 0.00 37 1006.3
20260831025637 94 154 13.0 21.0 0.00 0.00 0.00 35 1006.0
20260831025356 94 163 8.0 14.0 0.00 0.00 0.00 34 1005.9
20260831024629 94 156 9.0 11.0 0.00 0.00 0.00 34 1005.6
20260831024126 94 172 10.0 12.0 0.00 0.00 0.00 33 1005.3
20260831023621 94 149 2.0 8.0 0.00 0.00 0.00 33 1005.4
20260831023117 94 131 7.0 8.0 0.00 0.00 0.00 33 1005.2
20260831022613 94 167 5.0 11.0 0.00 0.00 0.00 33 1005.2
20260831022602 94 152 4.0 9.0 0.00 0.00 0.00 33 1005.2
20260831021605 94 130 3.0 9.0 0.00 0.00 0.00 32 1005.1
20260831021101 95 172 4.0 12.0 0.00 0.00 0.00 32 1004.6
20260831020557 95 141 8.0 9.0 0.00 0.00 0.00 32 1005.0
20260831020053 95 149 4.0 11.0 0.00 0.00 0.00 32 1004.9
20260831015549 95 102 4.0 12.0 0.00 0.00 0.00 32 1004.8
20260831015046 95 139 4.0 9.0 0.00 0.00 0.00 32 1004.8
20260831014542 95 134 4.0 9.0 0.00 0.00 0.00 32 1004.8
20260831014037 95 175 3.0 8.0 0.00 0.00 0.00 32 1004.7
20260831013534 95 103 3.0 9.0 0.00 0.00 0.00 31 1004.6
20260831013029 95 140 4.0 8.0 0.00 0.00 0.00 31 1004.7
20260831012525 95 145 6.0 8.0 0.00 0.00 0.00 31 1004.4
20260831012021 96 169 5.0 9.0 0.00 0.00 0.00 31 1004.4
20260831011517 96 139 3.0 8.0 0.00 0.00 0.00 31 1004.5
20260831011013 96 147 4.0 14.0 0.00 0.00 0.00 31 1004.2
20260831010509 96 143 3.0 8.0 0.00 0.00 0.00 31 1004.4
20260831010005 96 143 8.0 10.0 0.00 0.00 0.00 31 1004.2
20260831005502 96 149 4.0 8.0 0.00 0.00 0.00 31 1004.4
20260831004958 97 125 10.0 14.0 0.00 0.00 0.00 31 1004.3
20260831004717 97 156 7.0 12.0 0.00 0.00 0.00 30 1004.2
20260831004210 97 135 3.0 6.0 0.00 0.00 0.00 30 1004.5
20260831003446 97 122 2.0 10.0 0.00 0.00 0.00 30 1004.2
20260831002942 98 131 4.0 10.0 0.00 0.00 0.00 29 1004.2
20260831002438 97 151 3.0 10.0 0.00 0.00 0.00 30 1004.3
20260831001934 98 84 7.0 9.0 0.00 0.00 0.00 29 1004.3
20260831001650 97 139 7.0 10.0 0.00 0.00 0.00 29 1004.4
20260831001417 97 124 2.0 7.0 0.00 0.00 0.00 29 1004.1
20260831000422 97 122 9.0 13.0 0.00 0.00 0.00 29 1004.1
20260831000138 97 170 6.0 14.0 0.00 0.00 0.00 30 1004.4
20260830235414 97 201 5.0 13.0 0.00 0.00 0.00 30 1004.2
20260830234910 98 195 9.0 10.0 0.00 0.00 0.00 30 1004.2
20260830234406 97 35 3.0 9.0 0.00 0.00 0.00 30 1004.1
20260830233902 97 144 6.0 15.0 0.00 0.00 0.00 30 1004.2
20260830233358 97 164 4.0 8.0 0.00 0.00 0.00 29 1004.3
20260830232854 97 57 2.0 10.0 0.00 0.00 0.00 29 1004.4
20260830232350 97 141 4.0 9.0 0.00 0.00 0.00 29 1004.3
20260830231846 98 107 6.0 12.0 0.00 0.00 0.00 29 1004.6
20260830231604 97 136 3.0 13.0 0.00 0.00 0.00 30 1004.6
20260830230839 98 166 13.0 14.0 0.00 0.00 0.00 29 1004.5
20260830230334 97 201 5.0 10.0 0.00 0.00 0.00 30 1004.4
20260830225830 97 211 2.0 5.0 0.00 0.00 0.00 30 1004.7
20260830225325 96 8 3.0 7.0 0.00 0.00 0.00 31 1004.8
20260830224821 96 73 3.0 9.0 0.00 0.00 0.00 30 1005.0
20260830224317 97 71 8.0 14.0 0.00 0.00 0.00 30 1005.2
20260830223813 97 84 7.0 16.0 0.00 0.00 0.00 31 1005.0
20260830223309 98 141 6.0 15.0 0.00 0.00 0.00 31 1005.2
20260830222805 98 180 2.0 8.0 0.00 0.00 0.00 30 1005.5
20260830222301 96 259 3.0 4.0 0.00 0.00 0.00 29 1005.5
20260830221757 96 128 3.0 10.0 0.00 0.00 0.00 30 1005.8
20260830221253 96 114 3.0 12.0 0.00 0.00 0.00 29 1005.8
20260830220749 98 98 7.0 14.0 0.00 0.00 0.00 28 1005.7
20260830220246 97 100 7.0 13.0 0.00 0.00 0.00 29 1005.8
20260830215742 97 156 3.0 12.0 0.00 0.00 0.00 28 1005.9
20260830215238 98 133 7.0 12.0 0.00 0.00 0.00 29 1006.0
20260830214734 96 67 4.0 8.0 0.00 0.00 0.00 29 1006.1
20260830214720 97 73 6.0 10.0 0.00 0.00 0.00 29 1006.1
20260830213726 96 91 5.0 14.0 0.00 0.00 0.00 29 1006.2
20260830213222 97 149 5.0 9.0 0.00 0.00 0.00 28 1006.2
20260830212718 96 181 3.0 8.0 0.00 0.00 0.00 29 1006.3
20260830212214 97 45 5.0 8.0 0.00 0.00 0.00 29 1006.4
20260830211710 95 281 2.0 8.0 0.00 0.00 0.00 30 1006.5
20260830211206 97 100 5.0 14.0 0.00 0.00 0.00 29 1006.8
20260830210702 95 38 2.0 5.0 0.00 0.00 0.00 30 1006.6
20260830210157 96 142 4.0 8.0 0.00 0.00 0.00 30 1006.9
20260830205653 94 78 2.0 4.0 0.00 0.00 0.00 31 1007.2
20260830205149 96 267 4.0 10.0 0.00 0.00 0.00 31 1007.1
20260830204908 95 238 7.0 8.0 0.00 0.00 0.00 32 1007.5
20260830204142 95 176 2.0 11.0 0.00 0.00 0.00 31 1007.6
20260830203638 95 133 3.0 7.0 0.00 0.00 0.00 30 1007.6
20260830203356 95 70 8.0 12.0 0.00 0.00 0.00 31 1007.6
20260830202125 95 74 13.0 15.0 0.00 0.00 0.00 31 1007.8
20260830201621 93 318 4.0 7.0 0.00 0.00 0.00 33 1007.9
20260830201117 92 317 3.0 9.0 0.00 0.00 0.00 33 1008.3
20260830200836 94 48 4.0 6.0 0.00 0.00 0.00 32 1008.3
20260830200110 94 101 7.0 9.0 0.00 0.00 0.00 32 1008.4
20260830195605 94 88 7.0 11.0 0.00 0.00 0.00 33 1008.5
20260830195101 93 200 4.0 10.0 0.00 0.00 0.00 33 1008.3
20260830194557 94 191 4.0 8.0 0.00 0.00 0.00 33 1008.4
20260830194053 94 55 3.0 12.0 0.00 0.00 0.00 33 1008.6
20260830193549 92 169 3.0 11.0 0.00 0.00 0.00 34 1008.5
20260830193045 93 116 5.0 13.0 0.00 0.00 0.00 34 1008.8
20260830192541 92 160 4.0 10.0 0.00 0.00 0.00 34 1008.9
20260830192037 92 156 5.0 13.0 0.00 0.00 0.00 34 1009.1
20260830191533 93 114 6.0 13.0 0.00 0.00 0.00 33 1008.9
20260830191029 94 101 9.0 13.0 0.00 0.00 0.00 33 1009.0
20260830190525 93 193 6.0 10.0 0.00 0.00 0.00 34 1008.8
20260830190243 93 119 5.0 11.0 0.00 0.00 0.00 34 1009.3
20260830185518 93 45 6.0 10.0 0.00 0.00 0.00 33 1009.3
20260830185014 93 140 2.0 10.0 0.00 0.00 0.00 34 1009.4
20260830184732 92 103 4.0 6.0 0.00 0.00 0.00 34 1009.4
20260830184229 91 101 2.0 4.0 0.00 0.00 0.00 34 1009.8
20260830183722 92 136 6.0 9.0 0.00 0.00 0.00 32 1009.3
20260830182958 90 166 3.0 6.0 0.00 0.00 0.00 34 1009.8
20260830182454 92 0 2.0 13.0 0.00 0.00 0.00 35 1010.0
20260830181950 91 263 2.0 3.0 0.00 0.00 0.00 36 1010.2
20260830181446 91 59 3.0 7.0 0.00 0.00 0.00 36 1010.0
20260830180942 91 2 1.0 7.0 0.00 0.00 0.00 37 1010.2
20260830180438 89 96 1.0 4.0 0.00 0.00 0.00 38 1010.6
20260830175934 89 123 3.0 8.0 0.00 0.00 0.00 38 1010.4
20260830175429 89 80 8.0 10.0 0.00 0.00 0.00 39 1010.5
20260830174925 88 341 6.0 8.0 0.00 0.00 0.00 40 1010.6
20260830174421 89 84 5.0 12.0 0.00 0.00 0.00 40 1010.3
20260830173917 87 28 2.0 10.0 0.00 0.00 0.00 42 1010.5
20260830173637 88 76 12.0 12.0 0.00 0.00 0.00 43 1010.4
20260830173359 88 87 6.0 8.0 0.00 0.00 0.00 42 1010.7
20260830172405 87 81 5.0 11.0 0.00 0.00 0.00 42 1010.7
20260830171901 87 97 4.0 8.0 0.00 0.00 0.00 42 1010.9
20260830171357 87 41 2.0 9.0 0.00 0.00 0.00 41 1010.6
20260830171116 88 34 3.0 9.0 0.00 0.00 0.00 41 1010.6
20260830170349 88 102 4.0 10.0 0.00 0.00 0.00 42 1010.5
20260830165846 88 74 8.0 8.0 0.00 0.00 0.00 41 1010.7
20260830165342 87 66 3.0 8.0 0.00 0.00 0.00 41 1010.6
20260830164838 87 35 4.0 10.0 0.00 0.00 0.00 41 1010.7
20260830164334 86 45 4.0 9.0 0.00 0.00 0.00 43 1010.8
20260830163830 86 31 3.0 13.0 0.00 0.00 0.00 43 1010.8
20260830163326 85 349 3.0 8.0 0.00 0.00 0.00 44 1010.9
20260830162822 86 354 3.0 10.0 0.00 0.00 0.00 43 1011.1
20260830162542 85 96 6.0 7.0 0.00 0.00 0.00 43 1010.8
20260830161814 86 69 3.0 6.0 0.00 0.00 0.00 43 1010.8
20260830161310 86 20 4.0 6.0 0.00 0.00 0.00 43 1010.9
20260830161026 85 51 4.0 8.0 0.00 0.00 0.00 45 1011.0
20260830160302 84 35 0.0 6.0 0.00 0.00 0.00 45 1011.1
20260830155758 84 305 2.0 7.0 0.00 0.00 0.00 45 1011.2
20260830155514 86 49 1.0 6.0 0.00 0.00 0.00 45 1010.9
20260830154750 84 88 2.0 4.0 0.00 0.00 0.00 45 1011.1
20260830154246 84 9 3.0 7.0 0.00 0.00 0.00 46 1011.2
20260830153742 85 18 1.0 8.0 0.00 0.00 0.00 48 1011.0
20260830153238 84 326 3.0 7.0 0.00 0.00 0.00 47 1010.9
20260830152734 84 344 2.0 5.0 0.00 0.00 0.00 47 1010.9
20260830152230 84 30 3.0 7.0 0.00 0.00 0.00 47 1010.8
20260830151726 84 66 4.0 7.0 0.00 0.00 0.00 47 1010.7
20260830151222 83 347 8.0 8.0 0.00 0.00 0.00 48 1011.0
20260830150718 82 331 2.0 4.0 0.00 0.00 0.00 50 1011.0
20260830150214 81 45 2.0 2.0 0.00 0.00 0.00 52 1011.2
20260830145709 82 352 1.0 4.0 0.00 0.00 0.00 53 1011.3
20260830145205 81 24 2.0 5.0 0.00 0.00 0.00 53 1011.1
20260830144701 82 358 2.0 3.0 0.00 0.00 0.00 53 1011.2
20260830144157 81 322 0.0 3.0 0.00 0.00 0.00 54 1011.2
20260830143917 81 139 0.0 2.0 0.00 0.00 0.00 54 1011.2
20260830143410 81 241 0.0 2.0 0.00 0.00 0.00 55 1011.3
20260830142645 80 135 0.0 2.0 0.00 0.00 0.00 54 1011.1
20260830142141 80 209 0.0 3.0 0.00 0.00 0.00 55 1011.4
20260830141637 81 198 3.0 4.0 0.00 0.00 0.00 54 1011.4
20260830141357 81 234 0.0 3.0 0.00 0.00 0.00 53 1011.3
20260830140629 81 130 0.0 2.0 0.00 0.00 0.00 53 1011.1
20260830140126 81 175 2.0 3.0 0.00 0.00 0.00 53 1011.2
20260830135621 82 122 0.0 2.0 0.00 0.00 0.00 52 1011.3
20260830135117 81 156 2.0 3.0 0.00 0.00 0.00 52 1011.3
20260830134613 81 135 1.0 3.0 0.00 0.00 0.00 52 1011.2
20260830134109 82 170 2.0 3.0 0.00 0.00 0.00 52 1011.1
20260830133605 82 153 2.0 4.0 0.00 0.00 0.00 51 1011.1
20260830133101 82 160 3.0 4.0 0.00 0.00 0.00 50 1011.3
20260830132557 82 163 1.0 3.0 0.00 0.00 0.00 50 1011.2
20260830132053 82 61 2.0 6.0 0.00 0.00 0.00 49 1011.0
20260830131549 82 20 2.0 6.0 0.00 0.00 0.00 50 1010.8
20260830131536 82 9 4.0 6.0 0.00 0.00 0.00 50 1010.9
20260830130541 82 8 1.0 5.0 0.00 0.00 0.00 51 1010.8
20260830130037 82 16 1.0 6.0 0.00 0.00 0.00 50 1010.7
20260830125533 82 106 0.0 3.0 0.00 0.00 0.00 50 1010.4
20260830125029 82 44 2.0 4.0 0.00 0.00 0.00 50 1010.2
20260830124525 82 30 0.0 8.0 0.00 0.00 0.00 50 1010.1
20260830124244 83 356 2.0 5.0 0.00 0.00 0.00 50 1010.3
20260830123517 83 36 3.0 5.0 0.00 0.00 0.00 50 1010.5
20260830123234 83 1 2.0 5.0 0.00 0.00 0.00 49 1010.3
20260830122509 83 65 5.0 17.0 0.00 0.00 0.00 49 1010.1
20260830122225 83 26 1.0 8.0 0.00 0.00 0.00 49 1010.1
20260830121501 83 108 6.0 8.0 0.00 0.00 0.00 48 1010.2
20260830121221 83 135 0.0 4.0 0.00 0.00 0.00 48 1010.2
20260830120453 84 11 3.0 8.0 0.00 0.00 0.00 47 1009.8
20260830115949 83 336 2.0 5.0 0.00 0.00 0.00 47 1009.6
20260830115939 83 356 3.0 11.0 0.00 0.00 0.00 47 1009.3
20260830114941 83 20 5.0 15.0 0.00 0.00 0.00 47 1009.2
20260830114437 83 42 3.0 13.0 0.00 0.00 0.00 47 1009.2
20260830113933 83 39 3.0 13.0 0.00 0.00 0.00 47 1009.2
20260830113920 83 41 11.0 11.0 0.00 0.00 0.00 47 1009.6
20260830112925 84 62 4.0 10.0 0.00 0.00 0.00 46 1009.2
20260830112421 84 28 3.0 11.0 0.00 0.00 0.00 45 1009.3
20260830111917 84 306 4.0 9.0 0.00 0.00 0.00 44 1009.4
20260830111413 85 357 7.0 14.0 0.00 0.00 0.00 44 1009.5
20260830110910 85 32 3.0 7.0 0.00 0.00 0.00 43 1009.6
20260830110405 85 347 6.0 10.0 0.00 0.00 0.00 43 1009.3
20260830110121 85 37 2.0 10.0 0.00 0.00 0.00 43 1009.3
20260830105619 85 0 3.0 6.0 0.00 0.00 0.00 43 1008.8
20260830104853 85 347 5.0 8.0 0.00 0.00 0.00 43 1008.8
20260830104610 85 357 5.0 13.0 0.00 0.00 0.00 42 1008.6
20260830103845 84 46 3.0 11.0 0.00 0.00 0.00 43 1008.6
20260830103341 84 347 3.0 5.0 0.00 0.00 0.00 44 1008.9
20260830102837 84 221 1.0 4.0 0.00 0.00 0.00 44 1008.7
20260830102333 84 99 2.0 4.0 0.00 0.00 0.00 45 1008.6
20260830101829 84 358 2.0 6.0 0.00 0.00 0.00 45 1008.4
20260830101547 84 18 3.0 4.0 0.00 0.00 0.00 45 1008.4
20260830100821 84 92 2.0 3.0 0.00 0.00 0.00 45 1008.2
20260830100317 84 356 2.0 3.0 0.00 0.00 0.00 45 1008.2
20260830095813 84 278 2.0 6.0 0.00 0.00 0.00 44 1008.0
20260830095533 84 273 4.0 8.0 0.00 0.00 0.00 44 1008.0
20260830095026 84 306 2.0 7.0 0.00 0.00 0.00 44 1008.0
20260830094301 85 308 2.0 5.0 0.00 0.00 0.00 43 1007.9
20260830093757 85 322 2.0 7.0 0.00 0.00 0.00 43 1007.7
20260830093253 85 313 6.0 8.0 0.00 0.00 0.00 43 1007.6
20260830092749 86 318 3.0 8.0 0.00 0.00 0.00 42 1007.7
20260830092245 86 354 6.0 11.0 0.00 0.00 0.00 42 1007.7
20260830091741 85 327 3.0 6.0 0.00 0.00 0.00 44 1007.8
20260830091501 85 317 4.0 6.0 0.00 0.00 0.00 44 1007.9
20260830090733 85 304 5.0 8.0 0.00 0.00 0.00 44 1007.8
20260830090229 85 354 6.0 11.0 0.00 0.00 0.00 44 1007.6
20260830085725 85 2 3.0 4.0 0.00 0.00 0.00 44 1007.6
20260830085221 85 349 6.0 10.0 0.00 0.00 0.00 44 1007.4
20260830084717 85 324 2.0 11.0 0.00 0.00 0.00 45 1007.2
20260830084213 85 25 7.0 8.0 0.00 0.00 0.00 45 1007.5
20260830083709 85 358 3.0 10.0 0.00 0.00 0.00 45 1007.5
20260830083205 85 5 4.0 11.0 0.00 0.00 0.00 45 1007.4
20260830082701 85 10 4.0 10.0 0.00 0.00 0.00 45 1007.4
20260830082157 84 354 7.0 10.0 0.00 0.00 0.00 46 1007.3
20260830081653 84 354 8.0 10.0 0.00 0.00 0.00 46 1007.3
20260830081149 84 333 5.0 9.0 0.00 0.00 0.00 46 1007.2
20260830080645 84 309 6.0 13.0 0.00 0.00 0.00 46 1007.3
20260830080141 84 296 6.0 8.0 0.00 0.00 0.00 46 1007.2
20260830075637 84 299 3.0 13.0 0.00 0.00 0.00 46 1007.1
20260830075133 84 314 7.0 11.0 0.00 0.00 0.00 46 1006.9
20260830074629 85 308 9.0 18.0 0.00 0.00 0.00 45 1007.0
20260830074125 85 315 12.0 18.0 0.00 0.00 0.00 45 1007.0
20260830073621 85 323 6.0 15.0 0.00 0.00 0.00 45 1006.9
20260830073117 85 311 12.0 15.0 0.00 0.00 0.00 44 1006.8
20260830072613 86 320 6.0 22.0 0.00 0.00 0.00 43 1006.8
20260830072109 86 326 5.0 24.0 0.00 0.00 0.00 43 1006.9
20260830071606 86 320 8.0 19.0 0.00 0.00 0.00 43 1006.8
20260830071325 86 306 5.0 19.0 0.00 0.00 0.00 43 1006.8
20260830070557 86 308 7.0 12.0 0.00 0.00 0.00 43 1007.0
20260830070053 85 301 9.0 14.0 0.00 0.00 0.00 43 1006.8
20260830065549 85 323 12.0 12.0 0.00 0.00 0.00 43 1007.0
20260830065045 84 323 3.0 13.0 0.00 0.00 0.00 44 1007.3
20260830064541 84 311 4.0 5.0 0.00 0.00 0.00 45 1007.2
20260830064037 84 319 5.0 8.0 0.00 0.00 0.00 46 1007.3
20260830063756 84 318 4.0 8.0 0.00 0.00 0.00 46 1007.4
20260830063029 84 303 2.0 6.0 0.00 0.00 0.00 46 1007.4
20260830062747 84 321 7.0 8.0 0.00 0.00 0.00 46 1007.4
20260830062021 83 328 4.0 10.0 0.00 0.00 0.00 47 1007.7
20260830061517 84 314 5.0 7.0 0.00 0.00 0.00 46 1007.8
20260830061013 84 327 4.0 8.0 0.00 0.00 0.00 46 1007.7
20260830060509 84 319 4.0 8.0 0.00 0.00 0.00 46 1007.9
20260830060226 84 346 6.0 9.0 0.00 0.00 0.00 47 1007.9
20260830055502 84 345 4.0 8.0 0.00 0.00 0.00 46 1007.9
20260830054958 84 341 2.0 8.0 0.00 0.00 0.00 47 1007.8
20260830054454 85 343 9.0 11.0 0.00 0.00 0.00 46 1008.1
20260830053950 85 30 2.0 5.0 0.00 0.00 0.00 45 1008.3
20260830053710 86 68 3.0 6.0 0.00 0.00 0.00 43 1008.3
20260830052942 86 74 5.0 6.0 0.00 0.00 0.00 41 1008.4
20260830052438 86 88 2.0 4.0 0.00 0.00 0.00 42 1008.5
20260830051934 86 83 3.0 4.0 0.00 0.00 0.00 41 1008.7
20260830051430 86 88 2.0 2.0 0.00 0.00 0.00 41 1008.6
20260830050926 86 171 2.0 4.0 0.00 0.00 0.00 41 1008.7
20260830050642 86 190 0.0 4.0 0.00 0.00 0.00 42 1008.7
20260830045918 87 49 0.0 3.0 0.00 0.00 0.00 42 1008.7
20260830045414 87 93 2.0 3.0 0.00 0.00 0.00 41 1009.0
20260830045131 87 108 4.0 8.0 0.00 0.00 0.00 41 1009.1
20260830044406 87 112 4.0 11.0 0.00 0.00 0.00 41 1009.2
20260830043902 87 119 1.0 7.0 0.00 0.00 0.00 41 1009.2
20260830043620 87 170 7.0 10.0 0.00 0.00 0.00 41 1009.1
20260830042853 87 180 5.0 10.0 0.00 0.00 0.00 41 1009.2
20260830042350 87 176 3.0 6.0 0.00 0.00 0.00 41 1009.1
20260830041845 87 127 2.0 9.0 0.00 0.00 0.00 41 1008.9
20260830041601 87 98 5.0 8.0 0.00 0.00 0.00 42 1009.2
20260830040837 87 89 3.0 7.0 0.00 0.00 0.00 42 1009.2
20260830040333 87 97 6.0 12.0 0.00 0.00 0.00 42 1009.2
20260830040319 88 95 6.0 8.0 0.00 0.00 0.00 42 1009.2
20260830035326 88 111 6.0 10.0 0.00 0.00 0.00 42 1009.3
20260830034822 88 93 5.0 7.0 0.00 0.00 0.00 42 1009.2
20260830034538 88 99 2.0 6.0 0.00 0.00 0.00 41 1009.1
20260830034306 88 153 3.0 6.0 0.00 0.00 0.00 41 1008.8
20260830033310 88 136 8.0 11.0 0.00 0.00 0.00 41 1009.1
20260830032806 88 126 5.0 8.0 0.00 0.00 0.00 41 1009.0
20260830032305 89 125 6.0 14.0 0.00 0.00 0.00 41 1008.8
20260830031758 89 169 4.0 7.0 0.00 0.00 0.00 42 1008.6
20260830031254 88 165 3.0 7.0 0.00 0.00 0.00 42 1008.3
20260830031013 88 87 2.0 4.0 0.00 0.00 0.00 42 1008.2